Weather History for Edenton, NC

Change the Weather History Date:

Tuesday, January 1, 2013

  Actual Average Record
Temperature  
Mean Temperature 47 °F -  
Max Temperature 49 °F 56 °F 73 °F (1952)
Min Temperature 45 °F 37 °F 18 °F (1977)
Degree Days  
Heating Degree Days 18    
Moisture  
Dew Point 43 °F    
Average Humidity 83    
Maximum Humidity 100    
Minimum Humidity 64    
Precipitation  
Precipitation 0.12 in - - ()
Sea Level Pressure  
Sea Level Pressure 30.02 in    
Wind  
Wind Speed 0 mph (SW)    
Max Wind Speed 10 mph    
Max Gust Speed -    
Visibility 9 miles    
Events Rain    
Averages and records for this station are not official NWS values.
T = Trace of Precipitation, MM = Missing Value Source: NWS Daily Summary

Daily Weather History Graph

Daily Weather History Graph

Search for Another Location

Airport:

Trip Planner

Search our weather history database for the weather conditions in past years. The results will help you decide how hot, cold, wet, or windy it might be!

Date:

Astronomy

Jan. 01, 2013 Rise Set
Actual Time 7:17 AM EST 5:03 PM EST
Civil Twilight 6:48 AM EST 5:31 PM EST
Nautical Twilight 6:16 AM EST 6:03 PM EST
Astronomical Twilight 5:45 AM EST 6:34 PM EST
Moon 9:23 PM EST (1/1) 9:36 AM EST (1/1)
Length of Visible Light 10h 43m
Length of Day
9h 46m
Waning Gibbous, 83% of the Moon is Illuminated
Jan 1
Waning Gibbous
Jan 4
Last Quarter
Jan 11
New
Jan 18
First Quarter
Jan 26
Full

Hourly Weather History & Observations

Time (EST) Temp. Dew Point Humidity Pressure Visibility Wind Dir Wind Speed Gust Speed Precip Events Conditions
12:15 AM 47.7 °F 36.0 °F 64% 30.12 in 10.0 mi Calm Calm - N/A   Clear
12:35 AM 47.8 °F 36.1 °F 64% 30.11 in 10.0 mi Calm Calm - N/A   Clear
12:55 AM 47.7 °F 36.7 °F 66% 30.10 in 10.0 mi Calm Calm - N/A   Clear
1:15 AM 47.7 °F 36.9 °F 66% 30.09 in 10.0 mi Calm Calm - N/A   Clear
1:35 AM 47.7 °F 37.6 °F 68% 30.09 in 10.0 mi Calm Calm - N/A   Clear
1:55 AM 47.8 °F 37.9 °F 69% 30.09 in 10.0 mi Calm Calm - N/A   Clear
2:15 AM 47.3 °F 38.7 °F 72% 30.09 in 10.0 mi Calm Calm - N/A   Clear
2:35 AM 47.5 °F 39.4 °F 73% 30.10 in 10.0 mi Calm Calm - N/A   Clear
2:55 AM 47.5 °F 39.6 °F 74% 30.09 in 10.0 mi Calm Calm - N/A   Clear
3:15 AM 47.7 °F 40.1 °F 75% 30.09 in 10.0 mi Calm Calm - N/A   Clear
3:35 AM 48.0 °F 40.1 °F 74% 30.08 in 10.0 mi Calm Calm - N/A   Clear
3:55 AM 48.0 °F 40.1 °F 74% 30.07 in 10.0 mi Calm Calm - N/A   Clear
4:15 AM 48.2 °F 40.3 °F 74% 30.05 in 10.0 mi Calm Calm - N/A   Light Drizzle
4:35 AM 48.2 °F 40.3 °F 74% 30.04 in 10.0 mi Calm Calm - N/A   Clear
4:55 AM 48.2 °F 40.5 °F 75% 30.05 in 10.0 mi Calm Calm - N/A   Mostly Cloudy
5:15 AM 48.2 °F 40.5 °F 75% 30.05 in 10.0 mi Calm Calm - N/A   Mostly Cloudy
5:35 AM 48.2 °F 40.5 °F 75% 30.05 in 10.0 mi Calm Calm - N/A   Scattered Clouds
5:55 AM 48.2 °F 40.8 °F 76% 30.05 in 10.0 mi Calm Calm - N/A   Clear
6:15 AM 47.7 °F 41.2 °F 78% 30.05 in 10.0 mi Calm Calm - N/A   Clear
6:35 AM 48.4 °F 40.5 °F 74% 30.06 in 10.0 mi Calm Calm - N/A   Clear
6:55 AM 48.6 °F 39.9 °F 72% 30.06 in 10.0 mi Calm Calm - N/A   Scattered Clouds
7:15 AM 48.6 °F 39.4 °F 71% 30.05 in 10.0 mi Calm Calm - N/A   Scattered Clouds
7:35 AM 48.7 °F 39.2 °F 70% 30.06 in 10.0 mi Calm Calm - N/A   Clear
7:55 AM 48.9 °F 39.2 °F 69% 30.06 in 10.0 mi Calm Calm - N/A   Scattered Clouds
8:15 AM 48.6 °F 39.2 °F 70% 30.07 in 10.0 mi Calm Calm - N/A   Clear
8:35 AM 48.7 °F 39.6 °F 71% 30.09 in 10.0 mi Calm Calm - N/A   Scattered Clouds
8:55 AM 48.7 °F 40.1 °F 72% 30.07 in 10.0 mi Calm Calm - N/A   Scattered Clouds
9:15 AM 48.9 °F 41.2 °F 75% 30.07 in 10.0 mi Calm Calm - N/A   Light Drizzle
9:35 AM 48.6 °F 41.5 °F 77% 30.07 in 10.0 mi SW 3.5 mph - N/A   Mostly Cloudy
9:55 AM 49.1 °F 41.0 °F 74% 30.07 in 10.0 mi SW 10.4 mph - N/A   Overcast
10:15 AM 49.1 °F 41.7 °F 76% 30.08 in 10.0 mi Calm Calm - N/A   Light Drizzle
10:35 AM 49.1 °F 42.3 °F 77% 30.09 in 10.0 mi Calm Calm - N/A   Light Drizzle
10:55 AM 49.1 °F 42.1 °F 77% 30.07 in 10.0 mi Calm Calm - N/A   Light Drizzle
11:15 AM 49.1 °F 42.1 °F 77% 30.05 in 10.0 mi Calm Calm - N/A   Light Drizzle
11:35 AM 48.7 °F 41.5 °F 76% 30.03 in 10.0 mi Calm Calm - N/A   Light Drizzle
11:55 AM 48.4 °F 41.9 °F 78% 30.02 in 10.0 mi Calm Calm - N/A   Light Drizzle
12:15 PM 48.2 °F 42.8 °F 82% 29.99 in 10.0 mi Calm Calm - N/A Rain Light Rain
12:35 PM 48.2 °F 42.3 °F 80% 30.00 in 10.0 mi Calm Calm - N/A   Light Drizzle
12:55 PM 48.6 °F 43.2 °F 82% 29.97 in 10.0 mi Calm Calm - N/A   Mostly Cloudy
1:15 PM 48.4 °F 43.0 °F 82% 29.98 in 10.0 mi Calm Calm - N/A Rain Light Rain
1:35 PM 48.2 °F 43.7 °F 84% 29.93 in 10.0 mi Calm Calm - N/A   Drizzle
1:55 PM 48.6 °F 43.3 °F 82% 29.92 in 10.0 mi Calm Calm - N/A   Light Drizzle
2:15 PM 48.4 °F 43.9 °F 84% 29.96 in 10.0 mi Calm Calm - N/A   Light Drizzle
2:35 PM 48.4 °F 44.4 °F 86% 29.99 in 10.0 mi Calm Calm - N/A   Overcast
2:55 PM 48.2 °F 44.6 °F 87% 29.99 in 10.0 mi Calm Calm - N/A   Mostly Cloudy
3:15 PM 47.8 °F 44.6 °F 89% 29.98 in 10.0 mi Calm Calm - N/A   Scattered Clouds
3:35 PM 48.2 °F 44.4 °F 87% 29.96 in 10.0 mi Calm Calm - N/A   Mostly Cloudy
3:55 PM 48.2 °F 45.0 °F 89% 29.97 in 10.0 mi Calm Calm - N/A   Mostly Cloudy
4:15 PM 48.2 °F 44.6 °F 87% 29.96 in 10.0 mi Calm Calm - N/A   Overcast
4:35 PM 47.7 °F 44.6 °F 89% 29.97 in 10.0 mi Calm Calm - N/A   Overcast
4:55 PM 47.3 °F 45.0 °F 92% 29.96 in 10.0 mi Calm Calm - N/A   Overcast
5:15 PM 46.9 °F 44.8 °F 92% 29.95 in 10.0 mi Calm Calm - N/A Rain Light Rain
5:35 PM 46.8 °F 45.1 °F 94% 29.97 in 10.0 mi Calm Calm - N/A   Drizzle
5:55 PM 46.6 °F 45.5 °F 96% 29.98 in 7.0 mi Calm Calm - N/A Rain Rain
6:15 PM 46.4 °F 45.3 °F 96% 29.99 in 7.0 mi Calm Calm - 0.01 in   Overcast
6:35 PM 46.4 °F 45.1 °F 95% 29.99 in 7.0 mi Calm Calm - 0.01 in   Scattered Clouds
6:55 PM 46.4 °F 45.5 °F 97% 29.99 in 7.0 mi Calm Calm - 0.01 in   Light Drizzle
7:15 PM 46.4 °F 45.7 °F 97% 29.99 in 7.0 mi Calm Calm - N/A   Drizzle
7:35 PM 46.0 °F 46.0 °F 100% 29.99 in 5.0 mi Calm Calm - N/A Rain Light Rain
7:55 PM 45.9 °F 45.9 °F 100% 29.98 in 4.0 mi Calm Calm - 0.01 in Rain Light Rain
8:15 PM 45.7 °F 45.7 °F 100% 29.99 in 4.0 mi Calm Calm - 0.01 in Rain Rain
8:35 PM 46.4 °F 46.4 °F 100% 29.99 in 5.0 mi Calm Calm - 0.02 in Rain Rain
8:55 PM 46.4 °F 46.4 °F 100% 29.99 in 5.0 mi Calm Calm - 0.03 in Rain Rain
9:15 PM 46.8 °F 46.8 °F 100% 29.99 in 5.0 mi Calm Calm - 0.01 in Rain Light Rain
9:35 PM 47.3 °F 47.3 °F 100% 29.99 in 5.0 mi Calm Calm - 0.02 in Rain Rain
9:55 PM 47.3 °F 47.3 °F 100% 29.99 in 5.0 mi Calm Calm - 0.03 in Rain Rain
10:15 PM 47.3 °F 47.3 °F 100% 29.99 in 5.0 mi Calm Calm - N/A   Drizzle
10:35 PM 46.9 °F 46.9 °F 100% 29.99 in 4.0 mi Calm Calm - 0.01 in   Drizzle
10:55 PM 46.8 °F 46.8 °F 100% 29.99 in 4.0 mi Calm Calm - 0.01 in   Light Drizzle
11:15 PM 46.9 °F 46.9 °F 100% 29.98 in 3.0 mi Calm Calm - 0.01 in Rain Rain
11:35 PM 46.6 °F 46.6 °F 100% 29.99 in 3.0 mi Calm Calm - 0.01 in Rain Rain
11:55 PM 46.8 °F 46.8 °F 100% 29.98 in 2.0 mi Calm Calm - 0.03 in Rain Rain